#timestamp,LO_Frequency,Hit,StdDev 
1542225615.7,286047001.6,N
1542225635.5,286047001.8,N
1542225655.4,286047001.9,N
1542225675.2,286047001.8,N
1542225695.0,286047004.3,Y
1542225695.9,286047004.3,P
1542225715.8,286047002.9,N
1542225735.6,286047005.5,P
1542225755.4,286047004.7,N
1542225775.3,286047004.8,Y
1542225795.1,286047001.9,P
1542225815.9,286047002.8,P
1542225835.7,286047001.9,N
1542225855.5,286047002.8,Y
1542225875.4,286047001.4,P
1542225895.2,286047002.3,P
1542225915.1,286047000.3,N
1542225916.0,286047000.3,N
1542225935.8,286046999.9,N
1542225955.6,286047000.7,N
1542225975.5,286047002.8,N
1542225995.3,286047004.0,Y
1542226015.1,286047002.6,P
1542226035.9,286047002.0,N
1542226055.7,286047001.8,P
1542226075.6,286047004.3,Y
1542226095.4,286047000.6,P
1542226115.2,286047000.3,N
1542226135.1,286047002.0,N
1542226136.0,286047002.0,N
1542226155.8,286047004.3,Y
1542226175.7,286047001.9,P
1542226195.5,286047002.2,P
1542226215.3,286047001.5,P
1542226235.2,286047002.5,Y
1542226255.0,286046999.4,P
1542226255.9,286046999.4,N
1542226275.8,286046996.6,P
1542226295.6,286046998.2,N
1542226315.4,286047001.4,N
1542226335.3,286047001.8,N
1542226355.1,286047002.8,N
1542226375.8,286047002.6,N
1542226395.7,286047001.8,N
1542226415.5,286047004.4,N
1542226435.4,286047003.3,N
1542226455.2,286047007.4,Y
1542226475.0,286047003.1,P
1542226475.9,286047003.1,P
1542226495.8,286047003.8,P
1542226515.6,286047006.0,Y
1542226535.5,286047002.4,P
1542226555.3,286047003.8,P
1542226575.1,286047004.2,P
1542226595.9,286047003.6,Y
1542226615.7,286047000.6,P
1542226635.5,286046999.9,N
1542226655.4,286047002.8,N
1542226675.2,286047001.9,N
1542226695.1,286047002.7,N
1542226696.0,286047002.7,N
1542226715.8,286047001.0,N
1542226735.6,286047000.2,N
1542226755.5,286046999.8,N
1542226775.3,286047000.7,N
1542226795.1,286047000.7,N
1542226815.9,286047000.0,N
1542226835.7,286047001.1,N
1542226855.6,286047002.8,N
1542226875.4,286047002.5,N
1542226895.2,286047001.5,N
1542226915.1,286047004.1,Y
1542226916.0,286047004.1,P
1542226935.8,286047001.5,N
1542226955.7,286047004.2,P
1542226975.5,286047003.0,N
1542226995.3,286047003.0,N
1542227015.2,286047003.8,Y
1542227035.9,286047001.7,P
1542227055.7,286047002.6,P
1542227075.6,286046999.9,N
1542227095.4,286047001.2,N
1542227115.3,286047000.2,N
1542227135.1,286047000.6,N
1542227136.0,286047000.6,N
1542227155.8,286047000.4,N
1542227175.7,286047001.4,N
1542227195.5,286047003.6,Y
1542227215.3,286047002.3,P
1542227235.2,286047002.5,P
1542227255.0,286047001.9,P
1542227255.9,286047001.9,Y
1542227275.8,286046999.7,P
1542227295.6,286047000.3,N
1542227315.4,286047000.2,N
1542227335.3,286047000.8,N
1542227355.1,286047002.1,N
1542227375.8,286047000.8,N
1542227395.7,286047000.5,N
1542227415.5,286046999.9,N
1542227435.4,286046998.1,N
1542227455.2,286046998.5,N
1542227475.0,286046999.8,N
1542227475.9,286046999.8,N
1542227495.8,286047002.2,N
1542227515.6,286047001.9,N
1542227535.5,286047001.6,N
1542227555.3,286047001.5,N
1542227575.1,286047001.9,N
1542227595.9,286047002.7,N
1542227615.7,286047000.1,N
1542227635.5,286047001.6,N
1542227655.4,286047002.5,N
1542227675.2,286047002.0,N
1542227695.1,286047001.8,N
1542227696.0,286047001.8,N
1542227715.8,286047001.5,N
1542227735.6,286047003.9,Y
1542227755.5,286047004.2,P
1542227775.3,286047001.4,N
1542227795.2,286047001.7,N
1542227815.9,286047003.4,N
1542227835.7,286047003.5,N
1542227855.6,286047001.5,N
1542227875.4,286047004.4,Y
1542227895.2,286046998.1,P
1542227915.1,286047001.2,N
1542227916.0,286047001.2,N
1542227935.8,286046998.9,N
1542227955.7,286046999.6,N
1542227975.5,286046998.3,N
1542227995.3,286046999.0,N
1542228015.2,286046996.5,N
1542228035.0,286046999.4,N
1542228035.9,286046999.4,N
1542228055.7,286047001.1,N
1542228075.6,286046998.1,N
1542228095.4,286046999.4,N
1542228115.3,286046999.6,N
1542228135.1,286046997.0,N
1542228136.0,286046997.0,N
1542228155.8,286046996.7,N
1542228175.7,286046996.5,N
1542228195.5,286046999.5,N
1542228215.3,286046996.7,N
1542228235.2,286046997.6,N
1542228255.0,286046996.3,N
1542228255.9,286046996.3,N
1542228275.8,286046997.3,N
1542228295.6,286046996.5,N
1542228315.4,286046998.0,N
1542228335.3,286046995.3,N
1542228355.1,286046995.6,N
1542228375.9,286046997.2,N
1542228395.7,286046995.4,N
1542228415.5,286046995.7,N
1542228435.4,286046995.7,N
1542228455.2,286046995.2,N
1542228475.0,286046995.6,N
1542228475.9,286046995.6,N
1542228495.8,286046995.9,N
1542228515.6,286046996.2,N
1542228535.5,286046997.6,N
1542228555.3,286046995.1,Y
1542228575.1,286046999.0,P
1542228595.9,286046999.0,N
1542228615.7,286046998.8,N
1542228635.5,286046998.5,N
1542228655.4,286046999.4,N
1542228675.2,286046997.0,Y
1542228695.1,286046996.9,P
1542228696.0,286046996.9,P
1542228715.8,286046998.3,N
1542228735.6,286046997.0,Y
1542228755.5,286046998.4,P
1542228775.3,286047000.5,N
1542228795.2,286047001.1,N
1542228815.9,286046998.1,N
1542228835.7,286046999.0,N
1542228855.6,286046999.2,N
1542228875.4,286046999.1,N
1542228895.2,286046999.6,N
1542228915.1,286047000.6,N
1542228916.0,286047000.6,N
1542228935.8,286046998.5,N
1542228955.7,286046998.7,N
1542228975.5,286046998.1,N
1542228995.3,286046999.5,N
1542229015.2,286046997.3,N
1542229035.0,286046999.0,N
1542229035.9,286046999.0,N
1542229055.8,286046999.2,N
1542229075.6,286046996.9,Y
1542229095.4,286046998.4,P
1542229115.3,286046997.1,P
1542229135.1,286046999.0,N
1542229155.9,286046996.7,Y
1542229175.7,286046997.5,P
1542229195.5,286046997.2,P
